Regional Weather Roundup
Issued by NWS Goodland, KS

Home | Current Version | Previous Version | Graphics & Text | Print | Product List | Glossary On
Versions: 1 2 3 4 5 6 7 8 9 10 11 12 13 14 15 16 17 18 19 20 21 22 23 24 25 26 27 28 29 30 31 32 33 34 35 36 37 38 39 40 41 42 43 44 45 46 47 48 49 50
000
ASUS43 KGLD 010159
RWRGLD

GOODLAND FORECAST AREA HOURLY WEATHER ROUNDUP
NATIONAL WEATHER SERVICE GOODLAND KS
800 PM MDT TUE SEP 30 2014

...OFFICIAL OBSERVATIONS...

CITY           SKY/WX    TMP DP  RH WIND       PRES   REMARKS
GOODLAND KS    MOCLDY    61  47  59 S7        29.77S
HILL CITY KS   CLEAR     67  57  70 E7        29.72R
IMPERIAL NEB   MOCLDY    61  46  57 CALM      29.75R
MCCOOK NEB     PTCLDY    65  48  54 CALM      29.73R
AKRON CO       MOCLDY    59  41  51 CALM      29.82R
BURLINGTON CO  CLOUDY    59  47  64 S5        29.80R
LIMON CO       CLOUDY    56  48  74 CALM      29.87R
$$

...UNOFFICIAL OBSERVATIONS...

CITY           SKY/WX    TMP DP  RH WIND       PRES   REMARKS
COLBY KS       CLEAR     59  55  88 SW3       29.76S
GOVE KS          N/A     63  32  31 MISG        N/A
NORTON KS      CLEAR     63  48  59 CALM      29.72R
SHARON SPRINGS   N/A     61  47  60 SW7         N/A
WAKEENEY KS      N/A     67  51  56 MISG        N/A
TRENTON NEB      N/A     66  32  28 CALM        N/A
KIT CARSON CO    N/A     60  47  61 MISG        N/A
YUMA CO          N/A     60  49  66 CALM        N/A
$$



USA.gov is the U.S. government's official web portal to all federal, state and local government web resources and services.